Weather Service Report


475 
ASUS44 KMEG 280410
RWRTN 
TENNESSEE HOURLY STATE WEATHER ROUNDUP
NATIONAL WEATHER SERVICE MEMPHIS TN
1100 PM CDT FRI MAR 27 2015

TNZ002-004-019-021-049-052-054-088>092-280500-
WEST TENNESSEE
  
CITY           SKY/WX    TMP DP  RH WIND       PRES   REMARKS
MEMPHIS INTL   PTCLDY    40  26  57 NE8       30.19R WCI  34          
NWS MEMPHIS      N/A     38 N/A N/A MISG        N/A                   
JACKSON        CLEAR     32  23  69 N5        30.18S WCI  27          
DYERSBURG      PTCLDY    36  14  41 NE7       30.20S WCI  30          
UNION CITY     CLEAR     30  21  69 NE3       30.19R                  
PARIS          CLEAR     30  18  59 N3        30.18S                  
LEXINGTON      CLEAR     34  23  64 N6        30.15S WCI  29          
SAVANNAH       CLEAR     34  25  69 VRB5      30.16S WCI  30          
$$

TNZ008-025-027-028-033-062-065-066-280500-
NORTH MIDDLE TENNESSEE
  
CITY           SKY/WX    TMP DP  RH WIND       PRES   REMARKS
NASHVILLE      MOCLDY    35  23  61 NW7       30.15R WCI  29          
CLARKSVILLE    CLOUDY    34  21  59 N5        30.16S WCI  30          
SMYRNA         CLOUDY    37  24  60 N10       30.16R WCI  30          
COOKEVILLE     PTCLDY    36  25  64 N10       30.07S WCI  28          
CROSSVILLE     CLOUDY    33  23  66 NW9       30.03R WCI  25          
$$

TNZ061-075-076-078-094-096-097-280500-
SOUTH MIDDLE TENNESSEE
  
CITY           SKY/WX    TMP DP  RH WIND       PRES   REMARKS
FAYETTEVILLE   PTCLDY    34  28  80 N8        30.11R WCI  27          
TULLAHOMA      MOCLDY    34  28  80 N8        30.10R WCI  27          
WINCHESTER     CLOUDY    36  30  80 N8        30.10R WCI  29          
MCMINNVILLE    MOCLDY    36  25  64 N12       30.09R WCI  27          
COLUMBIA       MOCLDY    36  36 100 N6        30.13R WCI  31          
SHELBYVILLE    CLOUDY    36  30  80 N9        30.13R WCI  29          
$$

TNZ017-018-042-046-047-280500-
NORTHEAST TENNESSEE
  
CITY           SKY/WX    TMP DP  RH WIND       PRES   REMARKS
TRI CITIES     CLOUDY    36  25  64 NW10      29.95R WCI  28          
ELIZABETHTON   FLURRIES  34  25  69 N3        29.94R                  
$$

TNZ012-013-036-069-073-074-280500-
CENTRAL EAST TENNESSEE
  
CITY           SKY/WX    TMP DP  RH WIND       PRES   REMARKS
KNOXVILLE      CLOUDY    38  27  64 N9        30.03R WCI  31          
OAK RIDGE      CLOUDY    37  28  70 NW9       30.06R WCI  30          
GATLINBURG     CLOUDY    36  25  64 N8        30.01S WCI  29          
MORRISTOWN     MOCLDY    36  27  69 NW10      30.00S WCI  28          
$$

TNZ083-085-099-280500-
SOUTHEAST TENNESSEE
  
CITY           SKY/WX    TMP DP  RH WIND       PRES   REMARKS
CHATTANOOGA    MOCLDY    42  29  59 N14G22    30.06R                  
$$

SKY/WX REPORTED AS FAIR MEANS FEW OR NO CLOUDS BELOW
12 THOUSAND FEET.



476 
ASUS44 KMEG 280410
RWRMEG
MEMPHIS CWA HOURLY WEATHER ROUNDUP
NATIONAL WEATHER SERVICE MEMPHIS TN
1100 PM CDT FRI MAR 27 2015

...WEST TENNESSEE...
  
CITY           SKY/WX    TMP DP  RH WIND       PRES   REMARKS
MEMPHIS INTL   PTCLDY    40  26  57 NE8       30.19R WCI  34          
NWS MEMPHIS      N/A     38 N/A N/A MISG        N/A                   
JACKSON        CLEAR     32  23  69 N5        30.18S WCI  27          
LEXINGTON      CLEAR     34  23  64 N6        30.15S WCI  29          
SAVANNAH       CLEAR     34  25  69 VRB5      30.16S WCI  30          
DYERSBURG      PTCLDY    36  14  41 NE7       30.20S WCI  30          
UNION CITY     CLEAR     30  21  69 NE3       30.19R                  
PARIS          CLEAR     30  18  59 N3        30.18S                  


...EASTERN ARKANSAS...
  
CITY           SKY/WX    TMP DP  RH WIND       PRES   REMARKS
JONESBORO      MOCLDY    36  31  82 NE7       30.20R WCI  30          
WEST MEMPHIS   PTCLDY    38  30  73 NE6       30.19R WCI  33          
BATESVILLE     CLOUDY    39  28  65 W3        30.19S                  
NEWPORT        PTCLDY    41  34  76 E8        30.21R                  
BLYTHEVILLE    PTCLDY    34  28  79 NE5       30.20S WCI  30          
SEARCY         CLOUDY    42  35  76 CALM      30.21R                  
STUTTGART      MOCLDY    45  30  57 NE8       30.19R                  
PINE BLUFF     CLEAR     45  37  73 CALM      30.18R                  
MONTICELLO     PTCLDY    41  37  86 CALM      30.17R                  


...NORTH MISSISSIPPI...
  
CITY           SKY/WX    TMP DP  RH WIND       PRES   REMARKS
TUPELO         CLEAR     37  30  75 NE12      30.17R WCI  29          
OXFORD         CLEAR     36  30  80 NE3       30.19S                  
OLIVE BRANCH   CLEAR     36  30  80 NE6       30.19R WCI  31          
TUNICA         CLEAR     37  34  87 NE6       30.21R WCI  33          
CLARKSDALE     CLEAR     41  36  81 N7        30.20R                  
CORINTH        CLEAR     37  27  65 NW5       30.17S WCI  34          
GREENWOOD      MOCLDY    40  36  86 NE3       30.17S                  
COLUMBUS       CLEAR     41  36  82 N7        30.16R                  
STARKVILLE     FAIR      39  37  93 CALM      30.17R                  
GOLDEN TRIANGL CLEAR     39  36  87 NW6       30.15S WCI  35          


...SOUTHEAST MISSOURI...
  
CITY           SKY/WX    TMP DP  RH WIND       PRES   REMARKS
WEST PLAINS    CLOUDY    39  20  46 CALM      30.17S                  
POPLAR BLUFF   MOCLDY    37  28  70 CALM      30.20R                  
CAPE GIRARDEAU PTCLDY    30  28  92 SW3       30.20R                  


...NORTHWEST ALABAMA...
  
CITY           SKY/WX    TMP DP  RH WIND       PRES   REMARKS
MUSCLE SHOALS  CLEAR     38  27  64 NW8       30.15R WCI  32          


...MIDDLE TENNESSEE...
  
CITY           SKY/WX    TMP DP  RH WIND       PRES   REMARKS
NASHVILLE      MOCLDY    35  23  61 NW7       30.15R WCI  29          
CLARKSVILLE    CLOUDY    34  21  59 N5        30.16S WCI  30          
COLUMBIA       MOCLDY    36  36 100 N6        30.13R WCI  31          


...WESTERN KENTUCKY...
  
CITY           SKY/WX    TMP DP  RH WIND       PRES   REMARKS
PADUCAH        CLEAR     32  20  61 CALM      30.18S                  
FORT CAMPBELL  CLOUDY    35  18  49 N6        30.16R WCI  30          


...CENTRAL ARKANSAS...
  
CITY           SKY/WX    TMP DP  RH WIND       PRES   REMARKS
LITTLE ROCK    CLOUDY    45  30  55 NE6       30.20R                  


SKY/WX REPORTED AS FAIR MEANS FEW OR NO CLOUDS BELOW
12 THOUSAND FEET.


Return to Home page


Western Regional Climate Center, wrcc@dri.edu